Time,TemperatureF,DewpointF,PressureIn,WindDirection,WindDirectionDegrees,WindSpeedMPH,WindSpeedGustMPH,Humidity,HourlyPrecipIn,Conditions,Clouds,dailyrainin,SolarRadiationWatts/m^2,SoftwareType,DateUTC
2016-12-09 00:03:00,25.7,12.2,30.09,NW,306,2.0,9.0,56,0.00,,,0.00,0.0,meteobridge,2016-12-09 05:03:00,
2016-12-09 00:08:00,25.5,12.0,30.09,West,277,8.1,13.0,56,0.00,,,0.00,0.0,meteobridge,2016-12-09 05:08:00,
2016-12-09 00:14:00,25.3,12.2,30.09,WNW,296,4.0,13.0,57,0.00,,,0.00,0.0,meteobridge,2016-12-09 05:14:00,
2016-12-09 00:19:00,25.3,12.2,30.09,NW,306,8.9,16.0,57,0.00,,,0.00,0.0,meteobridge,2016-12-09 05:19:00,
2016-12-09 00:24:00,25.3,12.2,30.09,NW,307,4.9,14.0,57,0.00,,,0.00,0.0,meteobridge,2016-12-09 05:24:00,
2016-12-09 00:29:00,25.2,11.7,30.09,WNW,286,2.0,14.0,56,0.00,,,0.00,0.0,meteobridge,2016-12-09 05:29:00,
2016-12-09 00:34:00,25.0,11.5,30.10,NW,312,4.0,17.0,56,0.00,,,0.00,0.0,meteobridge,2016-12-09 05:34:00,
2016-12-09 00:39:00,25.0,11.1,30.10,WNW,287,4.9,16.0,55,0.00,,,0.00,0.0,meteobridge,2016-12-09 05:39:00,
2016-12-09 00:44:00,24.8,10.9,30.10,West,271,6.0,16.0,55,0.00,,,0.00,0.0,meteobridge,2016-12-09 05:44:00,
2016-12-09 00:49:00,24.8,11.3,30.11,WNW,293,2.9,15.0,56,0.00,,,0.00,0.0,meteobridge,2016-12-09 05:49:00,
2016-12-09 00:55:00,24.8,11.3,30.11,West,259,10.1,12.0,56,0.00,,,0.00,0.0,meteobridge,2016-12-09 05:55:00,
2016-12-09 01:00:00,24.8,11.3,30.11,West,279,0.0,2.0,56,0.00,,,0.00,0.0,meteobridge,2016-12-09 06:00:00,
2016-12-09 01:05:00,24.6,11.1,30.11,West,278,2.0,5.0,56,0.00,,,0.00,0.0,meteobridge,2016-12-09 06:05:00,
2016-12-09 01:10:00,24.4,11.5,30.11,NW,312,0.0,2.0,57,0.00,,,0.00,0.0,meteobridge,2016-12-09 06:10:00,
2016-12-09 01:16:00,24.4,11.5,30.11,WNW,301,2.9,3.0,57,0.00,,,0.00,0.0,meteobridge,2016-12-09 06:16:00,
2016-12-09 01:21:00,24.4,11.8,30.11,West,275,0.0,3.0,58,0.00,,,0.00,0.0,meteobridge,2016-12-09 06:21:00,
2016-12-09 01:26:00,24.3,11.7,30.11,West,271,2.9,5.0,58,0.00,,,0.00,0.0,meteobridge,2016-12-09 06:26:00,
2016-12-09 01:32:00,24.1,11.8,30.11,West,261,6.9,13.0,59,0.00,,,0.00,0.0,meteobridge,2016-12-09 06:32:00,
2016-12-09 01:37:00,23.9,11.3,30.11,NW,309,0.0,2.0,58,0.00,,,0.00,0.0,meteobridge,2016-12-09 06:37:00,
2016-12-09 01:42:00,23.9,11.3,30.11,West,279,2.0,6.0,58,0.00,,,0.00,0.0,meteobridge,2016-12-09 06:42:00,
2016-12-09 01:47:00,23.7,11.1,30.11,WNW,286,2.0,4.0,58,0.00,,,0.00,0.0,meteobridge,2016-12-09 06:47:00,
2016-12-09 01:52:00,23.7,10.8,30.11,West,278,4.0,6.0,57,0.00,,,0.00,0.0,meteobridge,2016-12-09 06:52:00,
2016-12-09 01:57:00,23.7,10.8,30.11,NW,316,0.0,4.0,57,0.00,,,0.00,0.0,meteobridge,2016-12-09 06:57:00,
2016-12-09 02:03:00,23.5,10.6,30.12,NW,304,6.0,6.0,57,0.00,,,0.00,0.0,meteobridge,2016-12-09 07:03:00,
2016-12-09 02:08:00,23.5,10.6,30.12,WNW,294,2.0,13.0,57,0.00,,,0.00,0.0,meteobridge,2016-12-09 07:08:00,
2016-12-09 02:13:00,23.5,10.6,30.12,WNW,292,0.0,11.0,57,0.00,,,0.00,0.0,meteobridge,2016-12-09 07:13:00,
2016-12-09 02:18:00,23.5,10.6,30.13,West,268,0.9,13.0,57,0.00,,,0.00,0.0,meteobridge,2016-12-09 07:18:00,
2016-12-09 02:23:00,23.5,10.6,30.13,West,266,0.9,10.0,57,0.00,,,0.00,0.0,meteobridge,2016-12-09 07:23:00,
2016-12-09 02:29:00,23.5,10.6,30.13,SW,217,0.0,14.0,57,0.00,,,0.00,0.0,meteobridge,2016-12-09 07:29:00,
2016-12-09 02:35:00,23.5,10.6,30.13,West,261,0.0,4.0,57,0.00,,,0.00,0.0,meteobridge,2016-12-09 07:35:00,
2016-12-09 02:40:00,23.4,10.4,30.13,WSW,248,0.9,4.0,57,0.00,,,0.00,0.0,meteobridge,2016-12-09 07:40:00,
2016-12-09 02:45:00,23.4,10.8,30.14,WSW,257,0.0,0.0,58,0.00,,,0.00,0.0,meteobridge,2016-12-09 07:45:00,
2016-12-09 02:50:00,23.2,10.6,30.14,WNW,288,0.0,0.0,58,0.00,,,0.00,0.0,meteobridge,2016-12-09 07:50:00,
2016-12-09 02:56:00,23.2,10.6,30.14,WNW,290,0.0,2.0,58,0.00,,,0.00,0.0,meteobridge,2016-12-09 07:56:00,
2016-12-09 03:01:00,23.2,10.6,30.14,West,279,0.0,0.0,58,0.00,,,0.00,0.0,meteobridge,2016-12-09 08:01:00,
2016-12-09 03:06:00,23.2,10.9,30.14,WNW,297,0.0,7.0,59,0.00,,,0.00,0.0,meteobridge,2016-12-09 08:06:00,
2016-12-09 03:12:00,23.2,10.9,30.14,WNW,294,0.0,0.0,59,0.00,,,0.00,0.0,meteobridge,2016-12-09 08:12:00,
2016-12-09 03:17:00,23.2,10.9,30.14,West,274,0.9,2.0,59,0.00,,,0.00,0.0,meteobridge,2016-12-09 08:17:00,
2016-12-09 03:22:00,23.2,11.3,30.14,West,268,2.9,6.0,60,0.00,,,0.00,0.0,meteobridge,2016-12-09 08:22:00,
2016-12-09 03:27:00,23.2,11.3,30.14,West,264,0.0,10.0,60,0.00,,,0.00,0.0,meteobridge,2016-12-09 08:27:00,
2016-12-09 03:33:00,23.2,11.3,30.15,WNW,288,0.0,4.0,60,0.00,,,0.00,0.0,meteobridge,2016-12-09 08:33:00,
2016-12-09 03:38:00,23.4,11.5,30.15,NW,315,0.0,5.0,60,0.00,,,0.00,0.0,meteobridge,2016-12-09 08:38:00,
2016-12-09 03:43:00,23.4,11.5,30.15,WSW,255,0.0,0.0,60,0.00,,,0.00,0.0,meteobridge,2016-12-09 08:43:00,
2016-12-09 03:49:00,23.4,11.5,30.16,WSW,255,0.0,0.0,60,0.00,,,0.00,0.0,meteobridge,2016-12-09 08:49:00,
2016-12-09 03:54:00,23.5,11.7,30.16,West,268,0.0,4.0,60,0.00,,,0.00,0.0,meteobridge,2016-12-09 08:54:00,
2016-12-09 03:59:00,23.5,11.7,30.15,WSW,258,0.0,1.0,60,0.00,,,0.00,0.0,meteobridge,2016-12-09 08:59:00,
2016-12-09 04:05:00,23.5,11.7,30.15,West,259,0.0,0.0,60,0.00,,,0.00,0.0,meteobridge,2016-12-09 09:05:00,
2016-12-09 04:10:00,23.5,11.7,30.15,NW,310,0.0,0.0,60,0.00,,,0.00,0.0,meteobridge,2016-12-09 09:10:00,
2016-12-09 04:15:00,23.5,11.7,30.15,West,276,0.0,0.0,60,0.00,,,0.00,0.0,meteobridge,2016-12-09 09:15:00,
2016-12-09 04:20:00,23.5,11.7,30.15,WNW,284,0.0,0.0,60,0.00,,,0.00,0.0,meteobridge,2016-12-09 09:20:00,
2016-12-09 04:25:00,23.5,11.7,30.15,WNW,284,0.0,0.0,60,0.00,,,0.00,0.0,meteobridge,2016-12-09 09:25:00,
2016-12-09 04:31:00,23.5,11.7,30.16,West,274,0.0,2.0,60,0.00,,,0.00,0.0,meteobridge,2016-12-09 09:31:00,
2016-12-09 04:36:00,23.5,11.7,30.16,West,274,0.9,1.0,60,0.00,,,0.00,0.0,meteobridge,2016-12-09 09:36:00,
2016-12-09 04:41:00,23.4,11.5,30.16,West,273,0.0,0.0,60,0.00,,,0.00,0.0,meteobridge,2016-12-09 09:41:00,
2016-12-09 04:47:00,23.4,11.8,30.16,West,278,0.0,4.0,61,0.00,,,0.00,0.0,meteobridge,2016-12-09 09:47:00,
2016-12-09 04:52:00,23.2,11.7,30.16,West,273,0.0,0.0,61,0.00,,,0.00,0.0,meteobridge,2016-12-09 09:52:00,
2016-12-09 04:57:00,23.2,11.7,30.16,WNW,285,2.9,5.0,61,0.00,,,0.00,0.0,meteobridge,2016-12-09 09:57:00,
2016-12-09 05:02:00,23.2,12.0,30.16,West,278,0.0,3.0,62,0.00,,,0.00,0.0,meteobridge,2016-12-09 10:02:00,
2016-12-09 05:08:00,23.0,11.8,30.16,NW,306,0.0,3.0,62,0.00,,,0.00,0.0,meteobridge,2016-12-09 10:08:00,
2016-12-09 05:13:00,23.0,12.2,30.16,WNW,290,2.9,10.0,63,0.00,,,0.00,0.0,meteobridge,2016-12-09 10:13:00,
2016-12-09 05:19:00,23.0,12.2,30.17,NW,311,2.0,9.0,63,0.00,,,0.00,0.0,meteobridge,2016-12-09 10:19:00,
2016-12-09 05:24:00,23.0,12.2,30.17,NW,320,0.0,4.0,63,0.00,,,0.00,0.0,meteobridge,2016-12-09 10:24:00,
2016-12-09 05:29:00,23.0,12.2,30.17,WNW,290,0.0,6.0,63,0.00,,,0.00,0.0,meteobridge,2016-12-09 10:29:00,
2016-12-09 05:34:00,23.0,12.6,30.17,WNW,300,0.0,4.0,64,0.00,,,0.00,0.0,meteobridge,2016-12-09 10:34:00,
2016-12-09 05:39:00,22.8,12.6,30.17,WNW,282,0.0,6.0,64,0.00,,,0.00,0.0,meteobridge,2016-12-09 10:39:00,
2016-12-09 05:45:00,22.8,12.6,30.18,WNW,303,0.9,7.0,64,0.00,,,0.00,0.0,meteobridge,2016-12-09 10:45:00,
2016-12-09 05:50:00,22.8,12.6,30.18,WNW,285,4.0,5.0,64,0.00,,,0.00,0.0,meteobridge,2016-12-09 10:50:00,
2016-12-09 05:55:00,22.8,12.6,30.18,WNW,286,4.0,12.0,64,0.00,,,0.00,0.0,meteobridge,2016-12-09 10:55:00,
2016-12-09 06:01:00,22.8,12.6,30.18,West,280,6.9,7.0,64,0.00,,,0.00,0.0,meteobridge,2016-12-09 11:01:00,
2016-12-09 06:06:00,22.8,12.6,30.18,WNW,282,2.9,12.0,64,0.00,,,0.00,0.0,meteobridge,2016-12-09 11:06:00,
2016-12-09 06:11:00,22.8,12.7,30.18,West,276,4.9,5.0,65,0.00,,,0.00,0.0,meteobridge,2016-12-09 11:11:00,
2016-12-09 06:16:00,22.8,12.7,30.18,WNW,296,4.0,13.0,65,0.00,,,0.00,0.0,meteobridge,2016-12-09 11:16:00,
2016-12-09 06:21:00,22.8,12.7,30.18,WNW,290,0.9,4.0,65,0.00,,,0.00,0.0,meteobridge,2016-12-09 11:21:00,
2016-12-09 06:26:00,22.8,13.1,30.18,NW,305,2.0,12.0,66,0.00,,,0.00,0.0,meteobridge,2016-12-09 11:26:00,
2016-12-09 06:32:00,22.8,13.1,30.18,West,280,2.0,11.0,66,0.00,,,0.00,0.0,meteobridge,2016-12-09 11:32:00,
2016-12-09 06:37:00,22.8,13.1,30.18,WNW,295,2.0,7.0,66,0.00,,,0.00,0.0,meteobridge,2016-12-09 11:37:00,
2016-12-09 06:42:00,22.8,13.1,30.18,West,277,0.0,4.0,66,0.00,,,0.00,0.0,meteobridge,2016-12-09 11:42:00,
2016-12-09 06:47:00,22.8,13.1,30.18,NW,304,0.0,9.0,66,0.00,,,0.00,0.0,meteobridge,2016-12-09 11:47:00,
2016-12-09 06:53:00,22.8,13.1,30.18,WNW,283,0.9,4.0,66,0.00,,,0.00,0.0,meteobridge,2016-12-09 11:53:00,
2016-12-09 06:58:00,22.8,13.1,30.18,West,281,0.0,2.0,66,0.00,,,0.00,0.0,meteobridge,2016-12-09 11:58:00,
2016-12-09 07:03:00,22.8,13.1,30.19,NW,307,0.0,12.0,66,0.00,,,0.00,0.0,meteobridge,2016-12-09 12:03:00,
2016-12-09 07:08:00,22.6,13.3,30.19,West,281,0.9,7.0,67,0.00,,,0.00,0.0,meteobridge,2016-12-09 12:08:00,
2016-12-09 07:13:00,22.6,13.3,30.19,WNW,302,0.0,12.0,67,0.00,,,0.00,0.0,meteobridge,2016-12-09 12:13:00,
2016-12-09 07:18:00,22.8,13.5,30.19,WNW,284,0.0,6.0,67,0.00,,,0.00,0.0,meteobridge,2016-12-09 12:18:00,
2016-12-09 07:23:00,22.8,13.5,30.19,WNW,301,0.9,6.0,67,0.00,,,0.00,5.0,meteobridge,2016-12-09 12:23:00,
2016-12-09 07:29:00,23.0,13.6,30.19,NW,309,2.9,10.0,67,0.00,,,0.00,7.0,meteobridge,2016-12-09 12:29:00,
2016-12-09 07:34:00,23.0,13.6,30.20,West,277,2.9,4.0,67,0.00,,,0.00,9.0,meteobridge,2016-12-09 12:34:00,
2016-12-09 07:39:00,23.2,13.8,30.20,NW,319,2.9,8.0,67,0.00,,,0.00,12.0,meteobridge,2016-12-09 12:39:00,
2016-12-09 07:45:00,23.2,13.8,30.20,NW,316,11.0,13.0,67,0.00,,,0.00,14.0,meteobridge,2016-12-09 12:45:00,
2016-12-09 07:50:00,23.4,14.0,30.20,WNW,302,0.0,4.0,67,0.00,,,0.00,16.0,meteobridge,2016-12-09 12:50:00,
2016-12-09 07:56:00,23.4,14.0,30.20,NW,308,0.9,5.0,67,0.00,,,0.00,21.0,meteobridge,2016-12-09 12:56:00,
2016-12-09 08:01:00,23.4,14.0,30.20,NW,318,6.0,6.0,67,0.00,,,0.00,19.0,meteobridge,2016-12-09 13:01:00,
2016-12-09 08:07:00,23.5,14.2,30.20,WNW,297,4.0,18.0,67,0.00,,,0.00,23.0,meteobridge,2016-12-09 13:07:00,
2016-12-09 08:12:00,23.5,14.2,30.20,WNW,285,0.0,4.0,67,0.00,,,0.00,26.0,meteobridge,2016-12-09 13:12:00,
2016-12-09 08:17:00,23.5,14.2,30.21,WNW,283,0.9,4.0,67,0.00,,,0.00,32.0,meteobridge,2016-12-09 13:17:00,
2016-12-09 08:22:00,23.7,14.4,30.21,West,279,4.0,10.0,67,0.00,,,0.00,23.0,meteobridge,2016-12-09 13:22:00,
2016-12-09 08:27:00,23.7,14.4,30.21,WNW,296,6.9,13.0,67,0.00,,,0.00,30.0,meteobridge,2016-12-09 13:27:00,
2016-12-09 08:33:00,23.9,14.5,30.22,WNW,296,2.0,6.0,67,0.00,,,0.00,74.0,meteobridge,2016-12-09 13:33:00,
2016-12-09 08:38:00,24.1,14.7,30.22,NW,305,4.0,5.0,67,0.00,,,0.00,156.0,meteobridge,2016-12-09 13:38:00,
2016-12-09 08:43:00,24.3,14.9,30.22,NW,318,6.0,7.0,67,0.00,,,0.00,181.0,meteobridge,2016-12-09 13:43:00,
2016-12-09 08:48:00,24.4,14.7,30.22,West,274,6.0,10.0,66,0.00,,,0.00,178.0,meteobridge,2016-12-09 13:48:00,
2016-12-09 08:53:00,24.6,14.9,30.22,NW,313,6.9,10.0,66,0.00,,,0.00,206.0,meteobridge,2016-12-09 13:53:00,
2016-12-09 08:58:00,25.0,15.3,30.22,WNW,286,0.0,12.0,66,0.00,,,0.00,225.0,meteobridge,2016-12-09 13:58:00,
2016-12-09 09:04:00,25.3,15.3,30.22,WNW,294,0.0,6.0,65,0.00,,,0.00,200.0,meteobridge,2016-12-09 14:04:00,
2016-12-09 09:09:00,25.3,15.3,30.22,NW,305,2.9,13.0,65,0.00,,,0.00,243.0,meteobridge,2016-12-09 14:09:00,
2016-12-09 09:14:00,25.5,15.4,30.22,NW,315,4.0,11.0,65,0.00,,,0.00,234.0,meteobridge,2016-12-09 14:14:00,
2016-12-09 09:19:00,25.7,15.3,30.22,NW,311,6.9,10.0,64,0.00,,,0.00,255.0,meteobridge,2016-12-09 14:19:00,
2016-12-09 09:24:00,25.9,15.4,30.22,WNW,295,2.9,9.0,64,0.00,,,0.00,301.0,meteobridge,2016-12-09 14:24:00,
2016-12-09 09:29:00,26.1,15.6,30.23,NNW,327,2.9,12.0,64,0.00,,,0.00,345.0,meteobridge,2016-12-09 14:29:00,
2016-12-09 09:35:00,26.4,16.0,30.23,NNE,19,10.1,14.0,64,0.00,,,0.00,338.0,meteobridge,2016-12-09 14:35:00,
2016-12-09 09:40:00,26.6,15.6,30.23,NNW,340,2.0,11.0,63,0.00,,,0.00,316.0,meteobridge,2016-12-09 14:40:00,
2016-12-09 09:45:00,26.8,15.4,30.24,NW,323,6.9,14.0,62,0.00,,,0.00,114.0,meteobridge,2016-12-09 14:45:00,
2016-12-09 09:50:00,26.8,15.8,30.24,WNW,302,2.0,4.0,63,0.00,,,0.00,346.0,meteobridge,2016-12-09 14:50:00,
2016-12-09 09:55:00,27.0,15.6,30.24,West,271,8.9,12.0,62,0.00,,,0.00,81.0,meteobridge,2016-12-09 14:55:00,
2016-12-09 10:00:00,27.0,15.6,30.24,NW,313,0.0,7.0,62,0.00,,,0.00,357.0,meteobridge,2016-12-09 15:00:00,
2016-12-09 10:11:00,27.3,16.0,30.24,WNW,286,11.0,14.0,62,0.00,,,0.00,420.0,meteobridge,2016-12-09 15:11:00,
2016-12-09 10:16:00,27.5,15.8,30.25,NW,315,0.9,6.0,61,0.00,,,0.00,396.0,meteobridge,2016-12-09 15:16:00,
2016-12-09 10:21:00,27.9,15.8,30.25,NW,318,0.0,13.0,60,0.00,,,0.00,390.0,meteobridge,2016-12-09 15:21:00,
2016-12-09 10:26:00,28.0,15.6,30.25,NNW,346,0.0,3.0,59,0.00,,,0.00,457.0,meteobridge,2016-12-09 15:26:00,
2016-12-09 10:32:00,28.6,16.5,30.25,NW,314,4.0,8.0,60,0.00,,,0.00,468.0,meteobridge,2016-12-09 15:32:00,
2016-12-09 10:37:00,28.8,15.8,30.25,NNW,329,6.9,9.0,58,0.00,,,0.00,429.0,meteobridge,2016-12-09 15:37:00,
2016-12-09 10:42:00,28.9,15.6,30.25,WNW,294,2.9,13.0,57,0.00,,,0.00,401.0,meteobridge,2016-12-09 15:42:00,
2016-12-09 10:47:00,28.9,15.6,30.25,NW,318,2.9,11.0,57,0.00,,,0.00,320.0,meteobridge,2016-12-09 15:47:00,
2016-12-09 10:52:00,28.9,15.6,30.25,NW,304,2.9,6.0,57,0.00,,,0.00,406.0,meteobridge,2016-12-09 15:52:00,
2016-12-09 10:57:00,28.9,15.6,30.25,NW,320,11.0,11.0,57,0.00,,,0.00,427.0,meteobridge,2016-12-09 15:57:00,
2016-12-09 11:02:00,28.9,15.6,30.24,NNW,328,6.9,10.0,57,0.00,,,0.00,436.0,meteobridge,2016-12-09 16:02:00,
2016-12-09 11:08:00,29.1,15.8,30.24,NW,311,2.9,6.0,57,0.00,,,0.00,519.0,meteobridge,2016-12-09 16:08:00,
2016-12-09 11:13:00,29.5,16.2,30.24,NW,314,4.0,6.0,57,0.00,,,0.00,410.0,meteobridge,2016-12-09 16:13:00,
2016-12-09 11:18:00,29.5,16.2,30.24,NNW,338,2.9,4.0,57,0.00,,,0.00,185.0,meteobridge,2016-12-09 16:18:00,
2016-12-09 11:23:00,29.5,15.3,30.24,WNW,300,6.0,13.0,55,0.00,,,0.00,160.0,meteobridge,2016-12-09 16:23:00,
2016-12-09 11:28:00,29.1,15.4,30.24,NNW,342,2.0,7.0,56,0.00,,,0.00,176.0,meteobridge,2016-12-09 16:28:00,
2016-12-09 11:34:00,29.1,15.4,30.24,WNW,300,2.9,10.0,56,0.00,,,0.00,318.0,meteobridge,2016-12-09 16:34:00,
2016-12-09 11:39:00,29.3,15.6,30.24,NW,317,0.9,15.0,56,0.00,,,0.00,114.0,meteobridge,2016-12-09 16:39:00,
2016-12-09 11:44:00,29.3,15.6,30.24,WNW,290,4.9,7.0,56,0.00,,,0.00,325.0,meteobridge,2016-12-09 16:44:00,
2016-12-09 11:49:00,29.5,16.2,30.24,NW,321,2.9,10.0,57,0.00,,,0.00,367.0,meteobridge,2016-12-09 16:49:00,
2016-12-09 11:54:00,29.7,15.8,30.24,NNW,333,0.9,9.0,56,0.00,,,0.00,350.0,meteobridge,2016-12-09 16:54:00,
2016-12-09 11:59:00,29.8,15.6,30.24,WNW,302,8.9,15.0,55,0.00,,,0.00,234.0,meteobridge,2016-12-09 16:59:00,
2016-12-09 12:04:00,30.0,16.2,30.24,NNW,332,4.0,8.0,56,0.00,,,0.00,183.0,meteobridge,2016-12-09 17:04:00,
2016-12-09 12:10:00,30.4,16.2,30.24,West,272,4.0,7.0,55,0.00,,,0.00,248.0,meteobridge,2016-12-09 17:10:00,
2016-12-09 12:15:00,30.4,15.8,30.23,WNW,302,13.0,21.0,54,0.00,,,0.00,346.0,meteobridge,2016-12-09 17:15:00,
2016-12-09 12:20:00,30.4,15.3,30.23,NW,325,6.9,14.0,53,0.00,,,0.00,399.0,meteobridge,2016-12-09 17:20:00,
2016-12-09 12:25:00,30.0,14.9,30.23,WNW,288,4.0,16.0,53,0.00,,,0.00,343.0,meteobridge,2016-12-09 17:25:00,
2016-12-09 12:30:00,30.4,15.8,30.23,WNW,298,6.0,14.0,54,0.00,,,0.00,121.0,meteobridge,2016-12-09 17:30:00,
2016-12-09 12:35:00,30.4,15.3,30.23,NW,312,4.9,12.0,53,0.00,,,0.00,123.0,meteobridge,2016-12-09 17:35:00,
2016-12-09 12:40:00,30.4,15.3,30.23,NNW,329,4.9,9.0,53,0.00,,,0.00,142.0,meteobridge,2016-12-09 17:40:00,
2016-12-09 12:45:00,30.4,15.3,30.23,NW,311,6.9,20.0,53,0.00,,,0.00,90.0,meteobridge,2016-12-09 17:45:00,
2016-12-09 12:50:00,30.0,15.4,30.23,WNW,302,11.0,15.0,54,0.00,,,0.00,253.0,meteobridge,2016-12-09 17:50:00,
2016-12-09 12:55:00,30.0,15.4,30.23,West,272,6.0,18.0,54,0.00,,,0.00,239.0,meteobridge,2016-12-09 17:55:00,
2016-12-09 13:01:00,30.4,15.8,30.23,West,276,12.1,12.1,54,0.00,,,0.00,171.0,meteobridge,2016-12-09 18:01:00,
2016-12-09 13:06:00,30.4,15.3,30.23,WNW,300,4.9,18.0,53,0.00,,,0.00,54.0,meteobridge,2016-12-09 18:06:00,
2016-12-09 13:11:00,30.0,14.9,30.23,WNW,296,6.0,19.0,53,0.00,,,0.00,97.0,meteobridge,2016-12-09 18:11:00,
2016-12-09 13:16:00,29.8,14.7,30.24,West,276,4.9,14.0,53,0.00,,,0.00,74.0,meteobridge,2016-12-09 18:16:00,
2016-12-09 13:21:00,29.7,15.1,30.24,WNW,301,4.0,19.0,54,0.00,,,0.00,104.0,meteobridge,2016-12-09 18:21:00,
2016-12-09 13:26:00,29.7,15.1,30.24,NW,304,4.9,18.0,54,0.00,,,0.00,118.0,meteobridge,2016-12-09 18:26:00,
2016-12-09 13:31:00,30.0,15.4,30.24,NW,306,14.1,14.1,54,0.00,,,0.00,163.0,meteobridge,2016-12-09 18:31:00,
2016-12-09 13:36:00,30.0,14.9,30.24,NW,315,4.0,15.0,53,0.00,,,0.00,148.0,meteobridge,2016-12-09 18:36:00,
2016-12-09 13:41:00,30.0,15.4,30.24,NW,315,4.9,15.0,54,0.00,,,0.00,162.0,meteobridge,2016-12-09 18:41:00,
2016-12-09 13:47:00,30.0,14.9,30.24,West,273,4.9,16.0,53,0.00,,,0.00,134.0,meteobridge,2016-12-09 18:47:00,
2016-12-09 13:52:00,30.0,15.4,30.24,WSW,250,2.9,15.0,54,0.00,,,0.00,174.0,meteobridge,2016-12-09 18:52:00,
2016-12-09 13:57:00,30.0,15.4,30.24,WNW,283,2.0,12.0,54,0.00,,,0.00,91.0,meteobridge,2016-12-09 18:57:00,
2016-12-09 14:02:00,30.4,15.3,30.24,WNW,284,4.0,12.0,53,0.00,,,0.00,104.0,meteobridge,2016-12-09 19:02:00,
2016-12-09 14:07:00,30.4,15.3,30.24,NNW,328,17.9,18.0,53,0.00,,,0.00,104.0,meteobridge,2016-12-09 19:07:00,
2016-12-09 14:17:00,29.8,15.3,30.24,NW,313,2.0,12.0,54,0.00,,,0.00,72.0,meteobridge,2016-12-09 19:17:00,
2016-12-09 14:22:00,29.7,15.1,30.24,NW,314,2.0,11.0,54,0.00,,,0.00,62.0,meteobridge,2016-12-09 19:22:00,
2016-12-09 14:28:00,29.5,15.3,30.24,WNW,291,0.0,5.0,55,0.00,,,0.00,67.0,meteobridge,2016-12-09 19:28:00,
2016-12-09 14:33:00,29.5,15.8,30.24,NNW,342,2.0,6.0,56,0.00,,,0.00,70.0,meteobridge,2016-12-09 19:33:00,
2016-12-09 14:38:00,29.7,15.4,30.24,WNW,294,4.0,14.0,55,0.00,,,0.00,47.0,meteobridge,2016-12-09 19:38:00,
2016-12-09 14:44:00,29.5,14.9,30.24,West,267,2.9,10.0,54,0.00,,,0.00,51.0,meteobridge,2016-12-09 19:44:00,
2016-12-09 14:49:00,29.5,14.9,30.25,WNW,290,8.9,10.0,54,0.00,,,0.00,62.0,meteobridge,2016-12-09 19:49:00,
2016-12-09 14:54:00,29.5,14.9,30.25,West,273,4.0,13.0,54,0.00,,,0.00,53.0,meteobridge,2016-12-09 19:54:00,
2016-12-09 14:59:00,29.5,14.9,30.25,WNW,302,0.0,5.0,54,0.00,,,0.00,141.0,meteobridge,2016-12-09 19:59:00,
2016-12-09 15:04:00,29.8,15.3,30.26,WNW,294,14.1,14.1,54,0.00,,,0.00,104.0,meteobridge,2016-12-09 20:04:00,
2016-12-09 15:09:00,29.8,15.3,30.26,NW,304,2.0,12.0,54,0.00,,,0.00,56.0,meteobridge,2016-12-09 20:09:00,
2016-12-09 15:14:00,30.0,15.4,30.26,NW,315,2.0,12.0,54,0.00,,,0.00,76.0,meteobridge,2016-12-09 20:14:00,
2016-12-09 15:20:00,30.0,15.4,30.26,WNW,297,2.0,13.0,54,0.00,,,0.00,86.0,meteobridge,2016-12-09 20:20:00,
2016-12-09 15:25:00,29.8,15.3,30.26,West,269,6.9,18.0,54,0.00,,,0.00,86.0,meteobridge,2016-12-09 20:25:00,
2016-12-09 15:30:00,29.7,15.4,30.26,WNW,289,6.0,15.0,55,0.00,,,0.00,121.0,meteobridge,2016-12-09 20:30:00,
2016-12-09 15:35:00,29.7,15.4,30.26,WNW,286,0.9,6.0,55,0.00,,,0.00,95.0,meteobridge,2016-12-09 20:35:00,
2016-12-09 15:40:00,29.7,15.4,30.26,West,268,2.9,11.0,55,0.00,,,0.00,134.0,meteobridge,2016-12-09 20:40:00,
2016-12-09 15:45:00,29.7,15.4,30.27,WNW,285,6.9,9.0,55,0.00,,,0.00,63.0,meteobridge,2016-12-09 20:45:00,
2016-12-09 15:50:00,29.5,14.9,30.27,West,271,6.0,11.0,54,0.00,,,0.00,49.0,meteobridge,2016-12-09 20:50:00,
2016-12-09 15:55:00,29.5,14.9,30.27,NW,307,0.9,5.0,54,0.00,,,0.00,32.0,meteobridge,2016-12-09 20:55:00,
2016-12-09 16:01:00,29.5,14.9,30.27,West,273,6.9,10.0,54,0.00,,,0.00,37.0,meteobridge,2016-12-09 21:01:00,
2016-12-09 16:06:00,29.3,15.1,30.27,WNW,300,0.0,7.0,55,0.00,,,0.00,42.0,meteobridge,2016-12-09 21:06:00,
2016-12-09 16:11:00,29.3,15.1,30.27,West,278,0.0,5.0,55,0.00,,,0.00,40.0,meteobridge,2016-12-09 21:11:00,
2016-12-09 16:16:00,29.3,15.1,30.28,WNW,286,2.0,4.0,55,0.00,,,0.00,28.0,meteobridge,2016-12-09 21:16:00,
2016-12-09 16:21:00,29.1,14.9,30.28,WNW,288,2.9,9.0,55,0.00,,,0.00,37.0,meteobridge,2016-12-09 21:21:00,
2016-12-09 16:26:00,28.9,15.3,30.28,WNW,288,2.0,13.0,56,0.00,,,0.00,26.0,meteobridge,2016-12-09 21:26:00,
2016-12-09 16:32:00,28.8,15.1,30.29,West,274,4.0,11.0,56,0.00,,,0.00,23.0,meteobridge,2016-12-09 21:32:00,
2016-12-09 16:37:00,28.6,14.9,30.29,West,274,4.0,9.0,56,0.00,,,0.00,18.0,meteobridge,2016-12-09 21:37:00,
2016-12-09 16:42:00,28.2,14.5,30.29,WNW,286,0.9,15.0,56,0.00,,,0.00,7.0,meteobridge,2016-12-09 21:42:00,
2016-12-09 16:52:00,27.9,14.5,30.30,WNW,286,2.0,14.0,57,0.00,,,0.00,0.0,meteobridge,2016-12-09 21:52:00,
2016-12-09 16:57:00,27.9,14.5,30.30,NW,309,0.0,6.0,57,0.00,,,0.00,0.0,meteobridge,2016-12-09 21:57:00,
2016-12-09 17:02:00,27.7,14.4,30.31,WNW,303,0.0,7.0,57,0.00,,,0.00,0.0,meteobridge,2016-12-09 22:02:00,
2016-12-09 17:07:00,27.5,14.2,30.31,NW,317,4.0,10.0,57,0.00,,,0.00,0.0,meteobridge,2016-12-09 22:07:00,
2016-12-09 17:13:00,27.3,14.2,30.31,WNW,284,2.9,5.0,57,0.00,,,0.00,0.0,meteobridge,2016-12-09 22:13:00,
2016-12-09 17:18:00,27.1,14.0,30.30,WNW,284,4.0,11.0,57,0.00,,,0.00,0.0,meteobridge,2016-12-09 22:18:00,
2016-12-09 17:23:00,27.0,14.2,30.30,WNW,290,2.9,15.0,58,0.00,,,0.00,0.0,meteobridge,2016-12-09 22:23:00,
2016-12-09 17:28:00,27.0,14.2,30.30,West,276,11.0,12.0,58,0.00,,,0.00,0.0,meteobridge,2016-12-09 22:28:00,
2016-12-09 17:33:00,27.0,14.2,30.31,NW,318,0.9,6.0,58,0.00,,,0.00,0.0,meteobridge,2016-12-09 22:33:00,
2016-12-09 17:38:00,26.8,14.0,30.31,WNW,284,6.9,12.0,58,0.00,,,0.00,0.0,meteobridge,2016-12-09 22:38:00,
2016-12-09 17:44:00,26.6,14.2,30.31,NW,313,0.0,14.0,59,0.00,,,0.00,0.0,meteobridge,2016-12-09 22:44:00,
2016-12-09 17:54:00,26.4,14.4,30.31,West,281,4.0,6.0,60,0.00,,,0.00,0.0,meteobridge,2016-12-09 22:54:00,
2016-12-09 17:59:00,26.4,14.4,30.32,WNW,291,0.9,11.0,60,0.00,,,0.00,0.0,meteobridge,2016-12-09 22:59:00,
2016-12-09 18:05:00,26.2,14.5,30.32,WNW,292,0.9,11.0,61,0.00,,,0.00,0.0,meteobridge,2016-12-09 23:05:00,
2016-12-09 18:10:00,26.2,14.5,30.32,West,275,0.0,4.0,61,0.00,,,0.00,0.0,meteobridge,2016-12-09 23:10:00,
2016-12-09 18:15:00,26.1,14.5,30.33,West,273,0.0,4.0,61,0.00,,,0.00,0.0,meteobridge,2016-12-09 23:15:00,
2016-12-09 18:21:00,26.1,14.9,30.33,West,275,0.0,0.0,62,0.00,,,0.00,0.0,meteobridge,2016-12-09 23:21:00,
2016-12-09 18:26:00,26.1,14.9,30.33,West,261,0.0,4.0,62,0.00,,,0.00,0.0,meteobridge,2016-12-09 23:26:00,
2016-12-09 18:31:00,26.1,14.9,30.34,West,281,2.0,10.0,62,0.00,,,0.00,0.0,meteobridge,2016-12-09 23:31:00,
2016-12-09 18:36:00,25.9,14.7,30.34,West,267,0.0,0.0,62,0.00,,,0.00,0.0,meteobridge,2016-12-09 23:36:00,
2016-12-09 18:42:00,25.7,14.5,30.34,NW,304,0.0,1.0,62,0.00,,,0.00,0.0,meteobridge,2016-12-09 23:42:00,
2016-12-09 18:47:00,25.5,14.7,30.34,WNW,283,2.9,10.0,63,0.00,,,0.00,0.0,meteobridge,2016-12-09 23:47:00,
2016-12-09 18:52:00,25.5,14.7,30.34,West,279,0.0,1.0,63,0.00,,,0.00,0.0,meteobridge,2016-12-09 23:52:00,
2016-12-09 18:57:00,25.3,14.5,30.34,West,268,0.0,6.0,63,0.00,,,0.00,0.0,meteobridge,2016-12-09 23:57:00,
2016-12-09 19:02:00,25.3,14.9,30.34,NW,310,0.0,6.0,64,0.00,,,0.00,0.0,meteobridge,2016-12-10 00:02:00,
2016-12-09 19:08:00,25.3,14.9,30.34,West,276,0.0,4.0,64,0.00,,,0.00,0.0,meteobridge,2016-12-10 00:08:00,